Tracking 18785 objects as of 19-August-2017
HD Live streaming from Space Station
objects crossing your sky now

COSMOS 2087

Track COSMOS 2087 now!
COSMOS 2087 is classified as:


NORAD ID: 20707
Int'l Code: 1990-064A
Perigee: 4,165.2 km
Apogee: 36,175.3 km
Inclination: 68.7 °
Period: 717.2 minutes
Semi major axis: 26541 km
RCS: 8.1788 m2 (large)
Launch date: July 25, 1990
Source: Commonwealth of Independent States (former USSR) (CIS)
Launch site: PLESETSK MISSILE AND SPACE COMPLEX (PKMTR)
Your satellite tracking list
Your tracking list is empty





NASA's NSSDC Master Catalog

Two Line Element Set (TLE):
1 20707U 90064A   17230.95594949 -.00001058  00000-0  00000+0 0  9996
2 20707  68.7182  18.5700 6030263 116.0776 103.3151  2.00780321198318
Source of the keplerian elements: AFSPC